Location: Gellin
(53.4498°N, 14.3207°E)
Time: 23:29:32
(UTC+00:00)

USA 281 - Pass Details

Date: 03 March 2021
Orbit: 1076 x 1083 km, 106.0° (Epoch: 03 April)

Event Time Altitude Azimuth Distance (km) Brightness Sun altitude
Exits shadow 19:47:37 36° 53° (NE) 1,637 3.9 -27.2°
Maximum altitude 19:48:07 37° 43° (NE) 1,624 4.0 -27.3°
Drops below altitude 10° 19:54:01 10° 340° (NNW) 2,929 6.1 -28.0°
Sets 19:56:43 0° 332° (NNW) 3,889 7.0 -28.4°
